This demonstration page uses our WeatherBlox Daily Observations layout. Learn more.

38.88101, -77.10428

Hourly Observations for December 26, 2018

Temp ( °F °C ) Dew Point ( °F °C ) Humidity (%) Winds ( mph kmh ) Pressure ( in mb ) Visibility ( mi km ) Precip ( " mm )
12:52 am 00:52 Clear 32 0 25 -3.9 75 75 Calm 30.44 1031 10 16.0934 0 0
1:52 am 01:52 Clear 33 0.6 24 -4.4 70 70 N 3 6 30.46 1031 10 16.0934 0 0
2:52 am 02:52 Clear 32 0 25 -3.9 75 75 N 5 7 30.47 1032 10 16.0934 0 0
3:52 am 03:52 Mostly Clear 32 0 25 -3.9 75 75 Calm 30.47 1032 10 16.0934 0 0
4:52 am 04:52 Mostly Clear 32 0 24 -4.4 73 73 Calm 30.48 1032 10 16.0934 0 0
5:52 am 05:52 Clear 31 -0.6 24 -4.4 76 76 Calm 30.5 1033 10 16.0934 0 0
7:52 am 07:52 Sunny 33 0.6 24 -4.4 70 70 Calm 30.54 1034 10 16.0934 0 0
8:52 am 08:52 Sunny 36 2.2 27 -2.8 70 70 Calm 30.57 1035 10 16.0934 0 0
9:52 am 09:52 Sunny 38 3.3 27 -2.8 65 65 S 3 6 30.58 1036 10 16.0934 0 0
10:52 am 10:52 Sunny 40 4.4 28 -2.2 63 63 S 8 13 30.57 1035 10 16.0934 0 0
11:52 am 11:52 Sunny 43 6.1 26 -3.3 51 51 SSE 7 11 30.53 1034 10 16.0934 0 0
12:52 pm 12:52 Sunny 45 7.2 27 -2.8 49 49 S 7 11 30.51 1033 10 16.0934 0 0
1:52 pm 13:52 Sunny 47 8.3 28 -2.2 48 48 SSE 7 11 30.5 1033 10 16.0934 0 0
2:52 pm 14:52 Sunny 47 8.3 29 -1.7 50 50 S 9 15 30.5 1033 10 16.0934 0 0
3:52 pm 15:52 Mostly Sunny 46 7.8 30 -1.1 54 54 S 9 15 30.51 1033 10 16.0934 0 0
4:52 pm 16:52 Mostly Sunny 44 6.7 31 -0.6 60 60 S 9 15 30.52 1034 10 16.0934 0 0
5:52 pm 17:52 Clear 45 7.2 27 -2.8 49 49 SW 3 6 30.53 1034 10 16.0934 0 0
6:52 pm 18:52 Clear 43 6.1 33 0.6 68 68 S 3 6 30.54 1034 10 16.0934 0 0
7:52 pm 19:52 Clear 41 5 31 -0.6 67 67 S 5 7 30.54 1034 10 16.0934 0 0
8:52 pm 20:52 Clear 40 4.4 29 -1.7 65 65 SSW 6 9 30.55 1034 10 16.0934 0 0
9:52 pm 21:52 Clear 38 3.3 31 -0.6 76 76 SSW 6 9 30.55 1035 10 16.0934 0 0
10:52 pm 22:52 Clear 38 3.3 30 -1.1 73 73 S 5 7 30.55 1035 10 16.0934 0 0
11:52 pm 23:52 Clear 37 2.8 31 -0.6 79 79 S 6 9 30.54 1034 10 16.0934 0 0

Powered by AerisWeather